Weather History for Flippin, AR

Change the Weather History Date:

Wednesday, November 21, 2012

  Actual Average Record
Temperature  
Mean Temperature 50 °F -  
Max Temperature 68 °F 56 °F 73 °F (2003)
Min Temperature 33 °F 35 °F 19 °F (2000)
Degree Days  
Heating Degree Days 14    
Moisture  
Dew Point 37 °F    
Average Humidity 66    
Maximum Humidity 81    
Minimum Humidity 37    
Precipitation  
Precipitation 0.00 in - - ()
Sea Level Pressure  
Sea Level Pressure 30.22 in    
Wind  
Wind Speed 1 mph (ESE)    
Max Wind Speed 5 mph    
Max Gust Speed -    
Visibility 8 miles    
Events      
Averages and records for this station are not official NWS values.
T = Trace of Precipitation, MM = Missing Value Source: NWS Daily Summary

Daily Weather History Graph

Daily Weather History Graph

Search for Another Location

Airport:

Trip Planner

Search our weather history database for the weather conditions in past years. The results will help you decide how hot, cold, wet, or windy it might be!

Date:

Astronomy

Nov. 21, 2012 Rise Set
Actual Time 6:54 AM CST 4:58 PM CST
Civil Twilight 6:26 AM CST 5:26 PM CST
Nautical Twilight 5:54 AM CST 5:57 PM CST
Astronomical Twilight 5:24 AM CST 6:28 PM CST
Moon 1:05 PM CST (11/21) 12:24 AM CST (11/21)
Length of Visible Light 10h 59m
Length of Day
10h 04m
First Quarter, 62% of the Moon is Illuminated
Nov 21
First Quarter
Nov 28
Full
Dec 6
Last Quarter
Dec 13
New
Dec 19
First Quarter

Hourly Weather History & Observations

Time (CST) Temp. Windchill Dew Point Humidity Pressure Visibility Wind Dir Wind Speed Gust Speed Precip Events Conditions
12:15 AM 42.8 °F - 35.6 °F 76% 30.21 in 10.0 mi Calm Calm - N/A   Clear
12:35 AM 42.8 °F - 35.6 °F 76% 30.21 in 10.0 mi Calm Calm - N/A   Clear
1:15 AM 42.8 °F - 35.6 °F 76% 30.22 in 10.0 mi Calm Calm - N/A   Clear
1:35 AM 44.6 °F - 37.4 °F 76% 30.22 in 10.0 mi Calm Calm - N/A   Clear
2:15 AM 42.8 °F - 37.4 °F 81% 30.23 in 10.0 mi Calm Calm - N/A   Clear
3:35 AM 39.2 °F - 33.8 °F 81% 30.24 in 9.0 mi Calm Calm - N/A   Clear
3:55 AM 39.2 °F - 33.8 °F 81% 30.25 in 7.0 mi Calm Calm - N/A   Clear
4:15 AM 39.2 °F - 33.8 °F 81% 30.24 in 5.0 mi Calm Calm - N/A   Clear
4:35 AM 37.4 °F - 32.0 °F 81% 30.24 in 5.0 mi Calm Calm - N/A   Clear
4:55 AM 37.4 °F - 32.0 °F 81% 30.24 in 4.0 mi Calm Calm - N/A   Clear
5:35 AM 35.6 °F - 30.2 °F 81% 30.25 in 6.0 mi Calm Calm - N/A   Clear
5:55 AM 35.6 °F - 30.2 °F 81% 30.25 in 4.0 mi Calm Calm - N/A   Clear
6:15 AM 35.6 °F - 30.2 °F 81% 30.26 in 1.2 mi Calm Calm - N/A   Scattered Clouds
6:35 AM 35.6 °F - 30.2 °F 81% 30.27 in 1.2 mi Calm Calm - N/A   Mostly Cloudy
6:55 AM 35.6 °F - 30.2 °F 81% 30.26 in 4.0 mi Calm Calm - N/A   Partly Cloudy
7:16 AM 33.8 °F - 28.4 °F 81% 30.27 in 1.0 mi Calm Calm - N/A   Overcast
7:35 AM 35.6 °F - 30.2 °F 81% 30.27 in 0.5 mi Calm Calm - N/A   Overcast
7:55 AM 35.6 °F - 30.2 °F 81% 30.28 in 0.2 mi Calm Calm - N/A   Overcast
8:16 AM 37.4 °F - 32.0 °F 81% 30.28 in 0.2 mi Calm Calm - N/A   Overcast
8:35 AM 39.2 °F - 33.8 °F 81% 30.29 in 0.2 mi Calm Calm - N/A   Overcast
8:55 AM 41.0 °F - 35.6 °F 81% 30.29 in 3.0 mi Calm Calm - N/A   Mostly Cloudy
9:35 AM 44.6 °F - 39.2 °F 81% 30.29 in 10.0 mi Calm Calm - N/A   Clear
9:55 AM 46.4 °F - 39.2 °F 76% 30.29 in 10.0 mi Calm Calm - N/A   Clear
10:15 AM 48.2 °F - 39.2 °F 71% 30.30 in 10.0 mi Calm Calm - N/A   Clear
10:35 AM 53.6 °F - 42.8 °F 67% 30.29 in 10.0 mi Calm Calm - N/A   Clear
11:15 AM 57.2 °F - 42.8 °F 59% 30.29 in 10.0 mi ENE 3.5 mph - N/A   Clear
11:35 AM 57.2 °F - 44.6 °F 63% 30.27 in 10.0 mi East 4.6 mph - N/A   Clear
11:55 AM 59.0 °F - 44.6 °F 59% 30.26 in 10.0 mi ESE 3.5 mph - N/A   Clear
12:36 PM 62.6 °F - 42.8 °F 48% 30.24 in 10.0 mi SSE 3.5 mph - N/A   Clear
12:55 PM 62.6 °F - 42.8 °F 48% 30.23 in 10.0 mi East 4.6 mph - N/A   Clear
1:15 PM 64.4 °F - 42.8 °F 45% 30.22 in 10.0 mi ESE 4.6 mph - N/A   Clear
1:55 PM 66.2 °F - 42.8 °F 43% 30.20 in 10.0 mi East 3.5 mph - N/A   Clear
2:15 PM 66.2 °F - 41.0 °F 40% 30.19 in 10.0 mi SE 4.6 mph - N/A   Clear
2:36 PM 66.2 °F - 41.0 °F 40% 30.18 in 10.0 mi Calm Calm - N/A   Clear
2:55 PM 66.2 °F - 39.2 °F 37% 30.18 in 10.0 mi Calm Calm - N/A   Clear
3:15 PM 66.2 °F - 41.0 °F 40% 30.18 in 10.0 mi ESE 3.5 mph - N/A   Clear
3:36 PM 68.0 °F - 41.0 °F 37% 30.18 in 10.0 mi Calm Calm - N/A   Clear
3:55 PM 66.2 °F - 39.2 °F 37% 30.18 in 10.0 mi Calm Calm - N/A   Clear
5:15 PM 60.8 °F - 37.4 °F 42% 30.15 in 10.0 mi East 3.5 mph - N/A   Clear
5:35 PM 59.0 °F - 37.4 °F 45% 30.16 in 10.0 mi Calm Calm - N/A   Clear
5:55 PM 57.2 °F - 37.4 °F 48% 30.15 in 10.0 mi Calm Calm - N/A   Clear
6:15 PM 53.6 °F - 39.2 °F 58% 30.16 in 5.0 mi Calm Calm - N/A   Clear
6:35 PM 51.8 °F - 37.4 °F 58% 30.16 in 9.0 mi Calm Calm - N/A   Clear
7:15 PM 51.8 °F - 37.4 °F 58% 30.17 in 10.0 mi Calm Calm - N/A   Clear
7:36 PM 48.2 °F - 37.4 °F 66% 30.17 in 10.0 mi Calm Calm - N/A   Clear
7:55 PM 48.2 °F - 37.4 °F 66% 30.16 in 10.0 mi Calm Calm - N/A   Clear
8:15 PM 48.2 °F - 37.4 °F 66% 30.16 in 10.0 mi Calm Calm - N/A   Clear
8:35 PM 48.2 °F - 37.4 °F 66% 30.17 in 10.0 mi Calm Calm - N/A   Clear
8:55 PM 48.2 °F - 37.4 °F 66% 30.16 in 10.0 mi Calm Calm - N/A   Clear
9:15 PM 48.2 °F - 37.4 °F 66% 30.17 in 10.0 mi Calm Calm - N/A   Clear
9:55 PM 46.4 °F - 37.4 °F 71% 30.16 in 10.0 mi Calm Calm - N/A   Clear
10:15 PM 44.6 °F 42.2 °F 37.4 °F 76% 30.16 in 10.0 mi South 4.6 mph - N/A   Clear
11:15 PM 46.4 °F 44.3 °F 35.6 °F 66% 30.15 in 10.0 mi SSE 4.6 mph - N/A   Clear
11:35 PM 48.2 °F - 37.4 °F 66% 30.15 in 10.0 mi South 4.6 mph - N/A   Clear
11:55 PM 46.4 °F 44.3 °F 37.4 °F 71% 30.15 in 10.0 mi SSE 4.6 mph - N/A   Clear